Location: ???????
(55.4362°N, 38.1183°E)
Time: 12:43:30
(UTC+00:00)

Cosmos 2219 Rocket - Pass Details

Date: 26 October 2021
Orbit: 826 x 848 km, 71.0° (Epoch: 01 December)

Event Time Altitude Azimuth Distance (km) Brightness Sun altitude
Exits shadow 23:08:18 20° 48° (NE) 1,868 4.5 -41.7°
Drops below altitude 10° 23:11:03 10° 75° (ENE) 2,469 5.1 -41.4°
Sets 23:14:03 0° 90° (E) 3,406 5.8 -41.2°
